Lexington Weather

Lexington, Massachusetts, USA

56°F
9/29/2023 4:21pm 
  • Lexington Conditions: Rain, Mist, Overcast
  • Temperature: 56.3°F / 13.5°CColder 2.3°F than last hour.
  • Dew Point: 55.2°FDecreased 2.4°Fsince last hour.
  • Relative Humidity: 96
  • Wind: Calm, 10-min avg: Calm, gust: None
  • Barometer: 30.21 in Steady
  • Visibility: 1½ miles
  • Rain Today: 0.44 in
  •   

Regional Weather Roundup
for Boston, MA

        
000
ASUS41 KBOX 251510
RWRBOX

REGIONAL WEATHER ROUNDUP
NATIONAL WEATHER SERVICE BOSTON/NORTON MA
1100 AM EDT MON SEP 25 2023

NOTE:  "FAIR" INDICATES FEW OR NO CLOUDS BELOW 12,000 FEET WITH NO 
SIGNIFICANT WEATHER AND/OR OBSTRUCTIONS TO VISIBILITY.

MAZALL-251600-
EASTERN MASSACHUSETTS
  
CITY           SKY/WX    TMP DP  RH WIND       PRES   REMARKS
BOSTON         CLOUDY    61  58  90 NE14      30.16S                  
BEVERLY        LGT RAIN  60  58  92 NE10      30.17S                  
LAWRENCE       LGT RAIN  60  58  92 NE10      30.20R                  
BEDFORD        LGT RAIN  59  59 100 NE8       30.16S FOG              
NORWOOD        CLOUDY    61  55  81 NE6       30.15S                  
MARSHFIELD     LGT RAIN  61  55  82 NE13G21   30.14S                  
PLYMOUTH       CLOUDY    63  56  78 NE15G22   30.12R                  
TAUNTON        CLOUDY    62  56  80 VRB7      30.12R                  
NEW BEDFORD    CLOUDY    62  58  86 NE8       30.10R                  
$$

MAZALL-251600-
CAPE COD AND THE ISLANDS
  
CITY           SKY/WX    TMP DP  RH WIND       PRES   REMARKS
FALMOUTH       CLOUDY    61  59  94 E16G25    30.11R                  
HYANNIS        CLOUDY    60  52  74 NE10      30.10R                  
CHATHAM        CLOUDY    66  53  63 NE17G25   30.12R                  
PROVINCETOWN   CLOUDY    62  57  83 E14       30.14S                  
NANTUCKET      CLOUDY    62  60  93 NE20G31   30.07R                  
MARTHAS VNYRD  CLOUDY    64  55  72 NE22G32   30.08R                  
$$
 
MAZALL-251600-
CENTRAL AND WESTERN MASSACHUSETTS
  
CITY           SKY/WX    TMP DP  RH WIND       PRES   REMARKS
WORCESTER      LGT RAIN  54  52  93 NE8G20    30.17S                  
FITCHBURG      LGT RAIN  57  54  89 CALM      30.19S                  
ORANGE         LGT RAIN  56  53  90 CALM      30.19R FOG              
SPRINGFIELD    LGT RAIN  55  51  86 N10       30.14R FOG              
WESTFIELD      LGT RAIN  54  50  86 N9        30.18R                  
NORTH ADAMS    LGT RAIN  60  54  80 E13G21    30.15R                  
PITTSFIELD     LGT RAIN  52  46  80 NE5       30.16R                  
$$
 
RIZALL-251600-
RHODE ISLAND
  
CITY           SKY/WX    TMP DP  RH WIND       PRES   REMARKS
PROVIDENCE     CLOUDY    57  54  89 N14       30.13R                  
NEWPORT        CLOUDY    59  54  83 NE10      30.09R                  
BLOCK ISLAND   LGT RAIN  57  57 100 NE25G35   30.07R FOG              
SMITHFIELD     LGT RAIN  57  57 100 NE14      30.14S                  
WESTERLY       CLOUDY    59  56  89 NE10      30.08R                  
$$
 
CTZALL-251600-
CONNECTICUT
  
CITY           SKY/WX    TMP DP  RH WIND       PRES   REMARKS
BRADLEY INTL   RAIN      54  51  90 N12       30.15R FOG              
HARTFORD       RAIN      55  54  94 MISG      30.13R FOG              
BRIDGEPORT     LGT RAIN  58  56  93 NE20G28   30.05R                  
DANBURY        RAIN      57  53  86 NE12G24   30.10R FOG              
GROTON         LGT RAIN  60  55  83 NE18G29   30.07R                  
NEW HAVEN      LGT RAIN  60  58  92 NE17G24   30.07R FOG              
CHESTER        LGT RAIN  55  55 100 NE12G23   30.10R                  
MERIDEN        LGT RAIN  56  52  86 NE13G18   30.12R FOG              
WILLIMANTIC    RAIN      56  55  97 NE8       30.12R FOG              
OXFORD         LGT RAIN  54  52  93 NE21G31   30.09R VSB 1            
$$

MEZ002-015-021-024-NHZ003-005-008-011-012-014-VTZ005-008-251600-
NORTHERN NEW ENGLAND
  
CITY           SKY/WX    TMP DP  RH WIND       PRES   REMARKS
PORTLAND ME    PTSUNNY   63  53  70 NE12      30.23R                  
BANGOR ME      PTSUNNY   62  51  67 NE12      30.29R                  
CONCORD NH     CLOUDY    64  56  75 NE7       30.20S                  
MANCHESTER NH  CLOUDY    63  56  78 NE12G18   30.18R                  
NASHUA NH      LGT RAIN  61  61 100 NE6       30.20R                  
PORTSMOUTH NH  PTSUNNY   61  54  79 NE12      30.19S                  
JAFFREY NH     CLOUDY    60  55  83 NE6       30.19R                  
KEENE NH       LGT RAIN  61  56  83 E7        30.18R                  
BURLINGTON VT  PTSUNNY   60  54  80 N8        30.22S                  
MT. WASHINGTON NOT AVBL                                               
$$

NYZ052-076-251600-
EASTERN NEW YORK
  
CITY           SKY/WX    TMP DP  RH WIND       PRES   REMARKS
ALBANY         CLOUDY    61  56  83 NW5       30.17R                  
NEW YORK CITY  LGT RAIN  61  58  90 NE21G28   30.03R FOG              
$$
 
ANZALL-251600-
MARINE OBSERVATIONS
  
STATION/POSITION TIME  TEMP    WIND        PRES    VSBY  WAVE
                       AIR SEA DIR/SP/G                  HT/PER
                 (UTC) (F)     (DEG/KT/KT) (MB)    (MI)  (FT/S)
BOSTON BUOY      1450   62 64   50/ 17/ 21 1021.0R         4/ 4
BUZZARDS BAY     1400   60      60/ 28/ 29 1018.0R
NANTUCKET SOUND  1450   64 67   70/ 23/ 29 1018.2R         4/ 4
MASS BAY-STELLWA NOT AVBL
ISLE OF SHOALS   1400   60      40/ 20/ 24 1021.4R
S OF BLOCK IS    1456      62                N/A           6/ 6
$$

......................KEY.........................
  SKY/WX - SKY CONDITION/PRESENT WEATHER
  TMP    - TEMPERATURE IN FAHRENHEIT
  DWPT   - DEWPOINT IN FAHRENHEIT
  RH     - RELATIVE HUMIDITY IN PERCENT
  WIND   - DIRECTION AND SPEED IN MPH
  PRES   - MEAN SEA LEVEL PRESSURE IN INCHES OF HG
  WCI    - WIND CHILL INDEX
  VSB    - VISIBILITY IN MILES
  HX     - HEAT INDEX
  TC     - TEMPERATURE IN CELSIUS
  VRB    - VARIABLE WIND DIRECTION
  N/A    - NOT AVAILABLE
  
      

Other recent Regional Weather Roundups

Fri Sep 29, 3:10pm EDT

Fri Sep 29, 2:10pm EDT

Fri Sep 29, 1:10pm EDT

Fri Sep 29, 12:10pm EDT

Fri Sep 29, 11:10am EDT

Fri Sep 29, 10:10am EDT

Fri Sep 29, 9:10am EDT

Fri Sep 29, 8:10am EDT

Fri Sep 29, 7:10am EDT

Fri Sep 29, 6:10am EDT

Fri Sep 29, 5:10am EDT

Fri Sep 29, 4:10am EDT

Fri Sep 29, 3:10am EDT

Fri Sep 29, 2:10am EDT

Fri Sep 29, 1:10am EDT

Fri Sep 29, 12:10am EDT

Thu Sep 28, 11:10pm EDT

Thu Sep 28, 10:10pm EDT

Thu Sep 28, 9:10pm EDT

Thu Sep 28, 8:10pm EDT

Thu Sep 28, 7:10pm EDT

Thu Sep 28, 6:10pm EDT

Thu Sep 28, 5:10pm EDT

Thu Sep 28, 4:10pm EDT

Thu Sep 28, 3:10pm EDT

Thu Sep 28, 2:10pm EDT

Thu Sep 28, 1:10pm EDT

Thu Sep 28, 12:10pm EDT

Thu Sep 28, 11:10am EDT

Thu Sep 28, 10:10am EDT

Thu Sep 28, 9:10am EDT

Thu Sep 28, 8:10am EDT

Thu Sep 28, 7:10am EDT

Thu Sep 28, 6:10am EDT

Thu Sep 28, 5:10am EDT

Thu Sep 28, 4:10am EDT

Thu Sep 28, 3:10am EDT

Thu Sep 28, 2:10am EDT

Thu Sep 28, 1:10am EDT

Thu Sep 28, 12:10am EDT

Wed Sep 27, 11:10pm EDT

Wed Sep 27, 10:10pm EDT

Wed Sep 27, 9:10pm EDT

Wed Sep 27, 8:10pm EDT

Wed Sep 27, 7:10pm EDT

Wed Sep 27, 6:10pm EDT

Wed Sep 27, 5:10pm EDT

Wed Sep 27, 4:10pm EDT

Wed Sep 27, 3:10pm EDT

Wed Sep 27, 2:10pm EDT

Wed Sep 27, 1:10pm EDT

Wed Sep 27, 12:10pm EDT

Wed Sep 27, 11:10am EDT

Wed Sep 27, 10:10am EDT

Wed Sep 27, 9:10am EDT

Wed Sep 27, 8:10am EDT

Wed Sep 27, 7:10am EDT

Wed Sep 27, 6:10am EDT

Wed Sep 27, 5:10am EDT

Wed Sep 27, 4:10am EDT

Wed Sep 27, 3:10am EDT

Wed Sep 27, 2:10am EDT

Wed Sep 27, 1:10am EDT

Wed Sep 27, 12:10am EDT

Tue Sep 26, 11:10pm EDT

Tue Sep 26, 10:10pm EDT

Tue Sep 26, 9:10pm EDT

Tue Sep 26, 8:10pm EDT

Tue Sep 26, 7:10pm EDT

Tue Sep 26, 6:10pm EDT

Tue Sep 26, 5:10pm EDT

Tue Sep 26, 4:10pm EDT

Tue Sep 26, 3:10pm EDT

Tue Sep 26, 2:10pm EDT

Tue Sep 26, 1:10pm EDT

Tue Sep 26, 12:10pm EDT

Tue Sep 26, 11:10am EDT

Tue Sep 26, 10:10am EDT

Tue Sep 26, 9:10am EDT

Tue Sep 26, 8:10am EDT

Tue Sep 26, 7:10am EDT

Tue Sep 26, 6:10am EDT

Tue Sep 26, 5:10am EDT

Tue Sep 26, 4:10am EDT

Tue Sep 26, 3:10am EDT

Tue Sep 26, 2:10am EDT

Tue Sep 26, 1:10am EDT

Tue Sep 26, 12:10am EDT

Mon Sep 25, 11:10pm EDT

Mon Sep 25, 10:10pm EDT

Mon Sep 25, 9:10pm EDT

Mon Sep 25, 8:10pm EDT

Mon Sep 25, 7:10pm EDT

Mon Sep 25, 6:10pm EDT

Mon Sep 25, 5:10pm EDT

Mon Sep 25, 4:10pm EDT

Mon Sep 25, 2:10pm EDT

Mon Sep 25, 1:10pm EDT

Mon Sep 25, 12:10pm EDT

Mon Sep 25, 10:10am EDT

Mon Sep 25, 9:10am EDT

Mon Sep 25, 8:10am EDT

Mon Sep 25, 7:10am EDT

Mon Sep 25, 6:10am EDT

Mon Sep 25, 5:10am EDT

Mon Sep 25, 4:10am EDT

Mon Sep 25, 3:10am EDT

Mon Sep 25, 2:10am EDT

Mon Sep 25, 1:10am EDT

Mon Sep 25, 12:10am EDT

Sun Sep 24, 11:10pm EDT

Sun Sep 24, 10:10pm EDT

Sun Sep 24, 9:10pm EDT

Sun Sep 24, 8:10pm EDT

Sun Sep 24, 7:10pm EDT

Sun Sep 24, 6:10pm EDT

Sun Sep 24, 5:10pm EDT

Sun Sep 24, 4:10pm EDT

Sun Sep 24, 3:10pm EDT

Sun Sep 24, 2:10pm EDT

Sun Sep 24, 1:10pm EDT

Sun Sep 24, 12:10pm EDT

Sun Sep 24, 11:10am EDT

Sun Sep 24, 10:10am EDT

Sun Sep 24, 9:10am EDT

Sun Sep 24, 8:10am EDT

Sun Sep 24, 7:10am EDT

Sun Sep 24, 6:10am EDT

Sun Sep 24, 5:10am EDT

Sun Sep 24, 4:10am EDT

Sun Sep 24, 3:10am EDT

Sun Sep 24, 2:10am EDT

Sun Sep 24, 1:10am EDT

Sun Sep 24, 12:10am EDT

Sat Sep 23, 11:10pm EDT

Sat Sep 23, 10:10pm EDT

Sat Sep 23, 9:10pm EDT

Sat Sep 23, 8:10pm EDT

Sat Sep 23, 7:10pm EDT

Sat Sep 23, 6:10pm EDT

Sat Sep 23, 5:10pm EDT

Sat Sep 23, 4:10pm EDT

Sat Sep 23, 3:10pm EDT

Sat Sep 23, 2:10pm EDT

Sat Sep 23, 1:10pm EDT

Sat Sep 23, 12:10pm EDT

Sat Sep 23, 11:10am EDT

Sat Sep 23, 10:10am EDT

Sat Sep 23, 9:10am EDT

Sat Sep 23, 8:10am EDT

Sat Sep 23, 7:10am EDT

Sat Sep 23, 6:10am EDT

Sat Sep 23, 5:10am EDT

Sat Sep 23, 4:10am EDT

Sat Sep 23, 3:10am EDT

Sat Sep 23, 2:10am EDT

Sat Sep 23, 1:10am EDT

Sat Sep 23, 12:10am EDT

Fri Sep 22, 11:10pm EDT

Fri Sep 22, 10:10pm EDT

Fri Sep 22, 9:10pm EDT

Fri Sep 22, 8:10pm EDT

Fri Sep 22, 7:10pm EDT

Fri Sep 22, 6:10pm EDT

Fri Sep 22, 5:10pm EDT

Fri Sep 22, 4:10pm EDT